Location: Moscow
(38.8570°N, 84.2291°W)
Time: 17:09:02
(UTC+00:00)

O/OREOS (USA 219) - Pass Details

Date: 13 March 2026
Orbit: 577 x 597 km, 72.0° (Epoch: 18 April)

Event Time Altitude Azimuth Distance (km) Brightness Sun altitude
Rises 00:52:23 0° 340° (NNW) 2,844 ? -14.7°
Reaches altitude 10° 00:54:38 10° 342° (NNW) 1,935 ? -15.1°
Maximum altitude 00:58:58 76° 69° (ENE) 614 ? -15.9°
Enters shadow 01:02:23 16° 153° (SSE) 1,569 ? -16.6°
